Location: Gleizolles
(44.4833°N, 6.7667°E)
Time: 21:19:35
(UTC+00:00)

A-11 Canister half - Pass Details

Date: 26 June 2024
Orbit: 1524 x 1684 km, 47.3° (Epoch: 18 July)

Event Time Altitude Azimuth Distance (km) Brightness Sun altitude
Rises 12:10:12 0° 246° (WSW) 4,761 11.8 67.7°
Reaches altitude 10° 12:13:17 10° 246° (WSW) 3,757 11.4 67.5°
Maximum altitude 12:22:48 87° 158° (SSE) 1,543 10.7 66.8°
Drops below altitude 10° 12:32:08 10° 72° (ENE) 3,693 10.9 65.9°
Sets 12:35:09 0° 72° (ENE) 4,675 11.3 65.6°
